Simultaneous Nadir Overpasses (SNOs) Predictions

Prediction of SNOs between GOES-17 and NOAA-20 Satellite Orbit:

Table of predicted SNOs for the next 14.0 days since TLE Epoch: 11/7/2020
Index Date Time (GOES-17) GOES-17 Lat,Lon NOAA-20 Lat,Lon Distance(km) Time Diff (sec)
1 11/07/2020 22:23:51 -0.02,-137.23 0.57,-134.58 302.29 80
2 11/09/2020 10:42:59 0.01,-137.23 0.62,-139.84 298.52 80
3 11/10/2020 10:26:55 0.01,-137.23 -0.43,-135.32 217.61 80
4 11/11/2020 22:46:12 -0.01,-137.23 -0.80,-140.62 387.78 80
5 11/12/2020 22:30:08 -0.01,-137.22 0.26,-136.10 128.13 80
6 11/14/2020 10:49:17 0.01,-137.22 0.94,-141.37 473.53 80
7 11/15/2020 10:33:12 0.01,-137.21 -0.06,-136.84 41.80 80
8 11/17/2020 22:33:45 -0.01,-137.17 -0.10,-137.62 50.19 80
9 11/18/2020 22:17:41 -0.01,-137.16 0.90,-133.08 464.54 80
10 11/20/2020 10:39:29 0.01,-137.14 0.30,-138.35 138.58 80
